Regional Weather Roundup
Issued by NWS Huntsville, AL

Home | Current Version | Previous Version | Text Only | Print | Product List | Glossary On
Versions: 1 2 3 4 5 6 7 8 9 10 11 12 13 14 15 16 17 18 19 20 21 22 23 24 25 26 27 28 29 30 31 32 33 34 35 36 37 38 39 40 41 42 43 44 45 46 47 48 49 50
119
ASUS44 KHUN 212210
RWRHUN

WEATHER ROUNDUP FOR THE TENNESSEE VALLEY
NATIONAL WEATHER SERVICE HUNTSVILLE AL
400 PM CST TUE NOV 21 2017

ALZ001>004-212300-
NORTHWEST ALABAMA

CITY           SKY/WX    TMP DP  RH WIND       PRES   REMARKS
COURTLAND HCN    N/A     59 N/A N/A W3          N/A
RUSSELLVILLE     N/A     57 N/A N/A MISG        N/A
SHOALS AIRPORT CLEAR     58  34  40 NW6       30.03R
SHOALS TVA RES   N/A     57 N/A N/A MISG        N/A
$$

ALZ005>007-016-212300-
NORTH CENTRAL ALABAMA

CITY           SKY/WX    TMP DP  RH WIND       PRES   REMARKS
CULLMAN AG STN   N/A     61 N/A N/A W3          N/A
DECATUR AP     PTCLDY    59  39  47 N5        30.02R
HUNTSVILLE AP  MOCLDY    63  39  41 W3        30.01R
MERIDIANVILLE  PTCLDY    59  36  41 W6        30.01R
REDSTONE ARSN  PTCLDY    60  40  47 NW6       30.00R
VINEMONT AP    FAIR      58  35  41 SW3       30.03R
$$

ALZ008>010-212300-
NORTHEAST ALABAMA

CITY           SKY/WX    TMP DP  RH WIND       PRES   REMARKS
ALBERTVILLE    CLEAR     59  54  82 SE3       30.00R
FORT PAYNE     CLEAR     59  46  63 CALM      30.00F
SCOTTSBORO AP  CLEAR     61  50  67 CALM      30.01R
SCOTTSBORO HCN   N/A     61 N/A N/A MISG        N/A
VALLEY HEAD      N/A     57 N/A N/A MISG        N/A
$$

TNZ076-096-097-212300-
SOUTHEASTERN MIDDLE TENNESSEE

CITY           SKY/WX    TMP DP  RH WIND       PRES   REMARKS
TULLAHOMA      CLEAR     59  36  41 SW7       29.99S
WINCHESTER     CLEAR     59  39  47 W3        30.00S
$$

...SURROUNDING SITES...

CITY           SKY/WX    TMP DP  RH WIND       PRES   REMARKS
ATLANTA        LGT RAIN  64  54  69 E3        30.01S
ANNISTON       CLEAR     65  52  62 CALM      30.00F
BIRMINGHAM     PTCLDY    64  33  31 CALM      30.02F
CHATTANOOGA    MOCLDY    60  50  69 CALM      30.01F
CORINTH        FAIR      57  36  44 S5        30.02S
DALTON         PTCLDY    63  52  67 CALM      30.02S
GADSDEN        CLEAR     61  50  67 SE3       30.00F
GOLDEN TRNGL   PTCLDY    59  37  44 N5        30.02S
HALEYVILLE     FAIR      57  36  45 CALM      30.04R
JACKSON TN     PTCLDY    57  38  48 CALM      30.01R
MEMPHIS        CLOUDY    59  38  45 SW7       30.01R
NASHVILLE      MOCLDY    58  26  29 SW5       30.00S
OXFORD MS      FAIR      57  34  41 CALM      30.03S
ROME           PTCLDY    64  54  69 CALM      29.99F
SAVANNAH       PTCLDY    55  37  50 CALM      30.01S
SELMER         CLEAR     57  34  41 SW3       30.01S
TUPELO         PTCLDY    58  34  40 CALM      30.03R
TUSCALOOSA     PTCLDY    65  36  34 CALM      30.01S
$$

...GULF COAST WEATHER...

CITY           SKY/WX    TMP DP  RH WIND       PRES   REMARKS
GULFPORT       CLOUDY    66  57  72 SE6       29.95S
PASCAGOULA     CLEAR     67  54  63 S5        29.95S
MOBILE         MOCLDY    69  49  48 NW3       29.97R
GULF SHORES    CLEAR     67  52  59 W6        29.96R
PENSACOLA      MOCLDY    68  49  50 N7        29.95R
DESTIN         CLOUDY    68  55  63 N8        29.96R
PANAMA CITY    CLEAR     69  62  77 NE6       29.92F
APPALACHICOLA  PTCLDY    68  66  93 E7        29.91F
$$





USA.gov is the U.S. government's official web portal to all federal, state and local government web resources and services.